• In Russia
  • List of Countries
  • For 7 days
  • Water Temperature
  • Satellite Maps
  • Weather Map
  • Weather Widgets
  • user-avatar
    Login

    Hourly Weather Wien

    Today, 17 October, Tuesday

    Time Temperature Precipitation Wind Pressure Humidity
    00:00 +15°C° 0 mm 1 mps 751 mmHg 81%
    01:00 +14°C° 0 mm 1 mps 751 mmHg 82%
    02:00 +13°C° 0 mm 0 mps 751 mmHg 83%
    03:00 +13°C° 0 mm 0 mps 750 mmHg 84%
    04:00 +12°C° 0 mm 0 mps 750 mmHg 84%
    05:00 +12°C° 0 mm 0 mps 750 mmHg 85%
    06:00 +12°C° 0 mm 0 mps 750 mmHg 85%
    07:00 +12°C° 0 mm 0 mps 750 mmHg 86%
    08:00 +15°C° 0 mm 1 mps 750 mmHg 78%
    09:00 +18°C° 0 mm 1 mps 750 mmHg 71%
    10:00 +20°C° 0 mm 1 mps 750 mmHg 64%
    11:00 +21°C° 0 mm 1 mps 750 mmHg 60%
    12:00 +21°C° 0 mm 2 mps 750 mmHg 56%
    13:00 +23°C° 0 mm 2 mps 749 mmHg 52%
    14:00 +23°C° 0 mm 2 mps 749 mmHg 54%
    15:00 +23°C° 0 mm 2 mps 748 mmHg 57%
    16:00 +21°C° 0 mm 2 mps 748 mmHg 60%
    17:00 +20°C° 0 mm 2 mps 748 mmHg 64%
    18:00 +18°C° 0 mm 2 mps 748 mmHg 68%
    19:00 +17°C° 0 mm 2 mps 748 mmHg 72%
    20:00 +16°C° 0 mm 2 mps 748 mmHg 74%
    21:00 +15°C° 0 mm 2 mps 747 mmHg 75%
    22:00 +15°C° 0 mm 2 mps 747 mmHg 77%
    23:00 +15°C° 0 mm 2 mps 747 mmHg 78%

    Tomorrow, 18 October, Wednesday

    Time Temperature Precipitation Wind Pressure Humidity
    00:00 +14°C° 0 mm 2 mps 746 mmHg 80%
    01:00 +14°C° 0 mm 2 mps 746 mmHg 81%
    02:00 +13°C° 0 mm 2 mps 746 mmHg 83%
    03:00 +13°C° 0 mm 2 mps 745 mmHg 84%
    04:00 +13°C° 0 mm 2 mps 745 mmHg 85%
    05:00 +13°C° 0 mm 2 mps 745 mmHg 86%
    06:00 +13°C° 0 mm 2 mps 745 mmHg 86%
    07:00 +13°C° 0 mm 1 mps 745 mmHg 86%
    08:00 +14°C° 0 mm 2 mps 745 mmHg 79%
    09:00 +16°C° 0 mm 2 mps 745 mmHg 72%
    10:00 +18°C° 0 mm 2 mps 745 mmHg 65%
    11:00 +19°C° 0 mm 2 mps 744 mmHg 61%
    12:00 +20°C° 0 mm 2 mps 744 mmHg 56%
    13:00 +21°C° 0 mm 2 mps 744 mmHg 52%
    14:00 +21°C° 0 mm 2 mps 743 mmHg 54%
    15:00 +21°C° 0 mm 2 mps 743 mmHg 56%
    16:00 +21°C° 0 mm 1 mps 743 mmHg 58%
    17:00 +20°C° 0 mm 1 mps 743 mmHg 62%
    18:00 +18°C° 0 mm 1 mps 743 mmHg 67%
    19:00 +15°C° 0 mm 1 mps 743 mmHg 72%
    20:00 +15°C° 0 mm 1 mps 743 mmHg 73%
    21:00 +15°C° 0 mm 1 mps 743 mmHg 75%
    22:00 +14°C° 0 mm 1 mps 743 mmHg 76%
    23:00 +14°C° 0 mm 1 mps 743 mmHg 78%

    Day after tomorrow, 19 October, Thursday

    Time Temperature Precipitation Wind Pressure Humidity
    00:00 +13°C° 0 mm 1 mps 743 mmHg 79%
    01:00 +13°C° 0 mm 1 mps 743 mmHg 80%
    02:00 +13°C° 0 mm 1 mps 743 mmHg 81%
    03:00 +12°C° 0 mm 1 mps 743 mmHg 82%
    04:00 +12°C° 0 mm 1 mps 743 mmHg 83%
    05:00 +12°C° 0 mm 1 mps 743 mmHg 84%
    06:00 +12°C° 0 mm 1 mps 743 mmHg 84%
    07:00 +12°C° 0 mm 1 mps 743 mmHg 84%
    08:00 +14°C° 0 mm 1 mps 743 mmHg 77%
    09:00 +16°C° 0 mm 1 mps 743 mmHg 69%
    10:00 +19°C° 0 mm 1 mps 743 mmHg 61%
    11:00 +20°C° 0 mm 1 mps 743 mmHg 57%
    12:00 +21°C° 0 mm 1 mps 743 mmHg 54%
    13:00 +22°C° 0 mm 1 mps 743 mmHg 50%
    14:00 +22°C° 0 mm 1 mps 743 mmHg 53%
    15:00 +21°C° 0 mm 1 mps 743 mmHg 56%
    16:00 +21°C° 0 mm 1 mps 742 mmHg 59%
    17:00 +19°C° 0 mm 1 mps 743 mmHg 63%
    18:00 +18°C° 0 mm 1 mps 743 mmHg 68%
    19:00 +15°C° 0 mm 1 mps 743 mmHg 72%
    20:00 +15°C° 0 mm 1 mps 743 mmHg 74%
    21:00 +14°C° 0 mm 1 mps 743 mmHg 75%
    22:00 +14°C° 0 mm 1 mps 743 mmHg 77%
    23:00 +13°C° 0 mm 1 mps 743 mmHg 78%

    20 October, Friday

    Time Temperature Precipitation Wind Pressure Humidity
    00:00 +13°C° 0 mm 1 mps 743 mmHg 79%
    01:00 +13°C° 0 mm 1 mps 743 mmHg 80%
    02:00 +12°C° 0 mm 1 mps 743 mmHg 82%
    03:00 +12°C° 0 mm 1 mps 743 mmHg 83%
    04:00 +12°C° 0 mm 1 mps 743 mmHg 84%
    05:00 +11°C° 0 mm 1 mps 743 mmHg 84%
    06:00 +11°C° 0 mm 1 mps 743 mmHg 85%
    07:00 +10°C° 0 mm 0 mps 743 mmHg 85%
    08:00 +13°C° 0 mm 1 mps 744 mmHg 77%
    09:00 +15°C° 0 mm 1 mps 744 mmHg 70%
    10:00 +18°C° 0 mm 1 mps 744 mmHg 62%
    11:00 +19°C° 0 mm 1 mps 744 mmHg 58%
    12:00 +20°C° 0 mm 1 mps 744 mmHg 55%
    13:00 +21°C° 0 mm 1 mps 744 mmHg 51%
    14:00 +21°C° 0 mm 1 mps 744 mmHg 54%
    15:00 +20°C° 0 mm 1 mps 744 mmHg 56%
    16:00 +20°C° 0 mm 1 mps 744 mmHg 59%
    17:00 +19°C° 0 mm 1 mps 745 mmHg 63%
    18:00 +16°C° 0 mm 1 mps 745 mmHg 67%
    19:00 +15°C° 0 mm 1 mps 745 mmHg 71%
    20:00 +15°C° 0 mm 1 mps 745 mmHg 72%
    21:00 +14°C° 0 mm 1 mps 746 mmHg 74%
    22:00 +14°C° 0 mm 1 mps 746 mmHg 75%
    23:00 +14°C° 0 mm 1 mps 746 mmHg 75%

    21 October, Saturday

    Time Temperature Precipitation Wind Pressure Humidity
    00:00 +13°C° 0 mm 1 mps 746 mmHg 75%
    01:00 +13°C° 0 mm 1 mps 745 mmHg 75%
    02:00 +13°C° 0 mm 1 mps 745 mmHg 76%
    03:00 +13°C° 0 mm 1 mps 745 mmHg 76%
    04:00 +12°C° 0 mm 1 mps 745 mmHg 76%
    05:00 +12°C° 0 mm 1 mps 745 mmHg 77%
    06:00 +12°C° 0 mm 1 mps 744 mmHg 78%
    07:00 +12°C° 0 mm 1 mps 744 mmHg 79%
    08:00 +14°C° 0 mm 2 mps 744 mmHg 73%
    09:00 +16°C° 0 mm 2 mps 744 mmHg 66%
    10:00 +18°C° 0 mm 2 mps 744 mmHg 59%
    11:00 +19°C° 0 mm 3 mps 744 mmHg 56%
    12:00 +20°C° 0 mm 3 mps 743 mmHg 52%
    13:00 +22°C° 0 mm 3 mps 743 mmHg 49%
    14:00 +21°C° 0 mm 3 mps 742 mmHg 52%
    15:00 +20°C° 0 mm 3 mps 742 mmHg 55%
    16:00 +20°C° 0 mm 3 mps 742 mmHg 58%
    17:00 +18°C° 0 mm 2 mps 742 mmHg 64%
    18:00 +17°C° 0 mm 2 mps 742 mmHg 70%
    19:00 +15°C° 0 mm 2 mps 742 mmHg 76%
    20:00 +15°C° 0 mm 1 mps 742 mmHg 78%
    21:00 +14°C° 0 mm 1 mps 742 mmHg 79%
    22:00 +14°C° 0 mm 1 mps 742 mmHg 81%
    23:00 +14°C° 0 mm 1 mps 742 mmHg 81%

    22 October, Sunday

    Time Temperature Precipitation Wind Pressure Humidity
    00:00 +14°C° 0 mm 2 mps 742 mmHg 81%
    01:00 +14°C° 0 mm 2 mps 742 mmHg 81%
    02:00 +13°C° 0 mm 3 mps 742 mmHg 82%
    03:00 +13°C° 0 mm 3 mps 742 mmHg 82%
    04:00 +13°C° 0 mm 3 mps 742 mmHg 82%
    05:00 +13°C° 0.1 mm 3 mps 742 mmHg 82%
    06:00 +13°C° 0.1 mm 3 mps 742 mmHg 82%
    07:00 +13°C° 0.1 mm 3 mps 742 mmHg 82%
    08:00 +12°C° 0.9 mm 3 mps 742 mmHg 83%
    09:00 +12°C° 0.9 mm 3 mps 742 mmHg 83%
    10:00 +12°C° 0.9 mm 4 mps 742 mmHg 84%
    11:00 +11°C° 1.3 mm 4 mps 742 mmHg 84%
    12:00 +11°C° 1.3 mm 4 mps 741 mmHg 84%
    13:00 +10°C° 1.3 mm 5 mps 741 mmHg 84%
    14:00 +10°C° 0.8 mm 4 mps 741 mmHg 83%
    15:00 +10°C° 0.8 mm 4 mps 742 mmHg 83%
    16:00 +10°C° 0.8 mm 3 mps 742 mmHg 82%
    17:00 +10°C° 0.2 mm 4 mps 742 mmHg 82%
    18:00 +10°C° 0.2 mm 4 mps 742 mmHg 82%
    19:00 +10°C° 0.2 mm 4 mps 742 mmHg 83%
    20:00 +10°C° 0 mm 4 mps 743 mmHg 82%
    21:00 +8°C° 0 mm 4 mps 743 mmHg 81%
    22:00 +8°C° 0 mm 5 mps 743 mmHg 80%
    23:00 +8°C° 0 mm 5 mps 742 mmHg 79%
    Show more